Location: Brno
(49.2000°N, 16.6330°E)
Time: 06:52:39
(UTC+02:00)

Cosmos 332 Rocket - Visible Passes

Search period start: 29 July 2015 00:00
Search period end: 08 August 2015 00:00
Orbit: 684 x 705 km, 74.0° (Epoch: 28 July)

Date Brightness Start Highest point End Pass type
(mag) Time Alt. Az. Time Alt. Az. Time Alt. Az.
29 Jul 6.0 01:39:59 11° ESE 01:41:40 13° E 01:44:03 10° ENE visible
29 Jul 3.7 03:18:43 25° SSW 03:21:31 85° WNW 03:26:21 10° NNE visible
30 Jul 4.7 02:20:51 27° SSE 02:22:36 37° ESE 02:27:02 10° NE visible
30 Jul 4.9 03:59:34 14° WSW 04:03:09 32° NW 04:07:29 10° N visible
31 Jul 5.9 01:22:56 14° ESE 01:23:57 15° E 01:26:42 10° ENE visible
31 Jul 3.7 03:01:39 32° SSW 03:03:52 77° WNW 03:08:41 10° NNE visible
31 Jul 5.9 04:42:32 10° WNW 04:45:16 15° NW 04:47:53 10° N visible
01 Aug 4.5 02:03:44 35° SE 02:04:54 41° ESE 02:09:27 10° NE visible
01 Aug 5.0 03:42:27 16° WSW 03:45:33 30° NW 03:49:46 10° N visible
02 Aug 5.7 01:05:46 16° ESE 01:06:14 17° E 01:09:18 10° ENE visible
02 Aug 3.8 02:44:29 39° SW 02:46:12 70° WNW 02:51:01 10° NNE visible
02 Aug 6.0 04:25:14 10° WNW 04:27:42 14° NW 04:30:02 10° NNW visible
03 Aug 4.3 01:46:31 43° SE 01:47:13 46° ESE 01:51:50 10° NNE visible
03 Aug 5.2 03:25:13 17° W 03:27:56 27° NW 03:32:03 10° N visible
04 Aug 5.6 00:48:31 18° E 00:48:31 18° E 00:51:51 10° NE visible
04 Aug 3.9 02:27:13 44° WSW 02:28:34 63° WNW 02:33:20 10° NNE visible
04 Aug 6.1 04:08:00 10° WNW 04:10:09 13° NW 04:12:09 10° NNW visible
05 Aug 4.1 01:29:12 50° ESE 01:29:31 51° ESE 01:34:13 10° NNE visible
05 Aug 5.3 03:07:55 17° W 03:10:20 25° NW 03:14:19 10° N visible
06 Aug 5.5 00:31:09 20° E 00:31:09 20° E 00:34:21 10° NE visible
06 Aug 4.1 02:09:52 46° WSW 02:10:54 57° WNW 02:15:40 10° NNE visible
06 Aug 6.2 03:50:49 10° WNW 03:52:35 12° NW 03:54:11 10° NNW visible
07 Aug 3.9 01:11:48 57° ESE 01:11:51 57° ESE 01:16:35 10° NNE visible
07 Aug 5.5 02:50:31 17° W 02:52:44 23° NW 02:56:34 10° N visible
